Total_Precipitation_Accumulation
0.77 0.69 0.72 0.86 0.93 0.78 0.69 0.68 0.74 0.62 0.39 0.21 0.19 0.23 0.32 0.31 0.16 0.10 0.06 0.04 0.02 0.01 0.01 0.02 0.05 0.05 0.03 0.01 0.00 0.00 0.00 0.00 0.00 0.00 0.00 0.00 0.00 0.00
0.59 0.60 0.56 0.49 0.53 0.69 0.80 0.81 0.84 0.80 0.70 0.29 0.23 0.31 0.37 0.40 0.32 0.26 0.15 0.11 0.07 0.05 0.04 0.04 0.05 0.05 0.04 0.03 0.02 0.01 0.00 0.00 0.00 0.01 0.01 0.01 0.01 0.01
0.61 0.49 0.46 0.45 0.49 0.47 0.51 0.65 0.80 0.83 0.83 0.40 0.26 0.26 0.28 0.25 0.23 0.24 0.23 0.21 0.18 0.19 0.16 0.12 0.07 0.04 0.02 0.02 0.02 0.03 0.03 0.03 0.03 0.02 0.02 0.01 0.01 0.01
0.85 0.66 0.51 0.63 0.72 0.62 0.62 0.67 0.67 0.58 0.64 0.50 0.31 0.28 0.36 0.45 0.52 0.53 0.46 0.37 0.28 0.25 0.23 0.19 0.14 0.07 0.04 0.04 0.04 0.04 0.03 0.02 0.02 0.01 0.01 0.01 0.01 0.00
0.80 0.63 0.53 0.54 0.60 0.59 0.56 0.50 0.48 0.55 0.70 0.80 0.65 0.49 0.46 0.43 0.44 0.40 0.31 0.28 0.26 0.31 0.28 0.24 0.16 0.08 0.03 0.02 0.02 0.02 0.02 0.02 0.02 0.02 0.01 0.00 0.00 0.00
0.71 0.80 0.63 0.57 0.65 0.73 0.82 0.83 0.85 0.83 0.76 0.70 0.61 0.49 0.45 0.41 0.40 0.31 0.27 0.25 0.29 0.29 0.26 0.16 0.10 0.05 0.04 0.03 0.03 0.03 0.02 0.03 0.03 0.02 0.01 0.00 0.00 0.00
0.61 0.69 0.60 0.47 0.43 0.41 0.44 0.52 0.60 0.63 0.60 0.58 0.46 0.32 0.25 0.21 0.20 0.18 0.20 0.24 0.29 0.22 0.19 0.16 0.09 0.05 0.03 0.02 0.02 0.02 0.04 0.04 0.02 0.01 0.01 0.01 0.00 0.00
0.51 0.52 0.47 0.45 0.37 0.36 0.36 0.32 0.30 0.32 0.32 0.28 0.26 0.22 0.20 0.21 0.16 0.11 0.10 0.12 0.13 0.07 0.07 0.05 0.03 0.02 0.01 0.00 0.05 0.03 0.03 0.03 0.01 0.01 0.01 0.00 0.00 0.00
0.43 0.41 0.42 0.41 0.38 0.30 0.29 0.30 0.32 0.36 0.27 0.20 0.18 0.18 0.19 0.21 0.21 0.20 0.17 0.13 0.08 0.06 0.04 0.02 0.01 0.00 0.00 0.01 0.03 0.01 0.02 0.01 0.01 0.01 0.01 0.01 0.00 0.00
0.55 0.48 0.50 0.48 0.47 0.37 0.32 0.22 0.23 0.23 0.18 0.13 0.11 0.12 0.10 0.09 0.09 0.10 0.08 0.06 0.04 0.02 0.01 0.00 0.00 0.00 0.00 0.00 0.01 0.00 0.01 0.01 0.02 0.01 0.01 0.00 0.00 0.00
0.70 0.57 0.62 0.78 0.78 0.64 0.50 0.38 0.24 0.26 0.21 0.15 0.10 0.09 0.08 0.06 0.04 0.03 0.01 0.00 0.01 0.00 0.00 0.00 0.00 0.00 0.00 0.00 0.00 0.01 0.02 0.02 0.02 0.02 0.02 0.01 0.02 0.07
0.44 0.56 0.59 0.54 0.66 0.49 0.41 0.34 0.24 0.22 0.17 0.11 0.04 0.01 0.01 0.01 0.01 0.00 0.00 0.01 0.01 0.01 0.00 0.00 0.00 0.00 0.00 0.00 0.00 0.00 0.01 0.02 0.02 0.03 0.03 0.03 0.07 0.16
0.20 0.24 0.26 0.16 0.09 0.09 0.09 0.12 0.14 0.12 0.08 0.03 0.01 0.00 0.00 0.00 0.00 0.00 0.00 0.01 0.02 0.02 0.04 0.03 0.01 0.01 0.01 0.00 0.00 0.00 0.00 0.01 0.02 0.03 0.04 0.05 0.12 0.24
0.01 0.01 0.01 0.02 0.01 0.00 0.00 0.00 0.00 0.00 0.00 0.00 0.00 0.00 0.00 0.00 0.00 0.00 0.00 0.00 0.01 0.01 0.01 0.03 0.02 0.02 0.02 0.02 0.01 0.00 0.01 0.01 0.02 0.03 0.04 0.06 0.13 0.24
0.00 0.00 0.00 0.00 0.00 0.00 0.00 0.00 0.00 0.00 0.00 0.00 0.00 0.00 0.00 0.00 0.00 0.00 0.00 0.00 0.00 0.00 0.01 0.01 0.02 0.03 0.03 0.03 0.02 0.02 0.04 0.02 0.03 0.03 0.02 0.04 0.11 0.18
0.00 0.00 0.00 0.00 0.00 0.00 0.00 0.00 0.00 0.00 0.00 0.00 0.00 0.00 0.00 0.00 0.00 0.00 0.00 0.00 0.00 0.00 0.00 0.01 0.03 0.03 0.04 0.05 0.04 0.04 0.03 0.04 0.03 0.01 0.01 0.04 0.11 0.17
0.00 0.00 0.00 0.00 0.00 0.00 0.00 0.00 0.00 0.00 0.00 0.00 0.00 0.00 0.00 0.00 0.00 0.00 0.00 0.00 0.00 0.00 0.00 0.01 0.02 0.02 0.03 0.03 0.04 0.02 0.03 0.04 0.03 0.02 0.04 0.07 0.12 0.16
0.00 0.00 0.00 0.00 0.00 0.00 0.00 0.00 0.00 0.00 0.00 0.00 0.00 0.00 0.00 0.00 0.00 0.00 0.00 0.00 0.00 0.00 0.00 0.00 0.03 0.07 0.07 0.06 0.05 0.02 0.02 0.03 0.06 0.04 0.01 0.03 0.09 0.17
0.00 0.00 0.00 0.00 0.00 0.00 0.00 0.00 0.00 0.00 0.00 0.00 0.00 0.00 0.00 0.00 0.01 0.00 0.00 0.01 0.00 0.00 0.00 0.00 0.02 0.05 0.07 0.04 0.01 0.02 0.02 0.02 0.08 0.11 0.03 0.01 0.03 0.13
0.00 0.00 0.00 0.00 0.00 0.00 0.00 0.00 0.00 0.00 0.00 0.00 0.00 0.00 0.00 0.00 0.01 0.00 0.01 0.00 0.01 0.01 0.01 0.01 0.02 0.03 0.07 0.04 0.06 0.02 0.03 0.04 0.06 0.06 0.06 0.02 0.02 0.12
0.00 0.00 0.00 0.00 0.00 0.00 0.00 0.00 0.00 0.00 0.00 0.00 0.00 0.00 0.00 0.01 0.01 0.01 0.01 0.03 0.03 0.03 0.03 0.01 0.01 0.04 0.11 0.15 0.14 0.03 0.02 0.03 0.03 0.03 0.05 0.07 0.04 0.05
0.00 0.00 0.00 0.00 0.00 0.00 0.00 0.00 0.00 0.00 0.00 0.00 0.00 0.00 0.00 0.01 0.02 0.02 0.02 0.02 0.02 0.02 0.02 0.01 0.01 0.07 0.13 0.11 0.04 0.02 0.01 0.04 0.09 0.09 0.05 0.04 0.02 0.01
0.00 0.00 0.00 0.00 0.00 0.00 0.00 0.00 0.00 0.00 0.00 0.01 0.01 0.01 0.01 0.01 0.01 0.02 0.03 0.03 0.04 0.04 0.03 0.03 0.03 0.08 0.08 0.05 0.07 0.07 0.06 0.09 0.12 0.10 0.06 0.04 0.02 0.00